TimeCDT,TemperatureF,Dew PointF,Humidity,Sea Level PressureIn,VisibilityMPH,Wind Direction,Wind SpeedMPH,Gust SpeedMPH,PrecipitationIn,Events,Conditions,WindDirDegrees,DateUTC
12:53 AM,68.0,64.9,90,30.06,9.0,Calm,Calm,-,N/A,,Clear,0,2013-10-03 05:53:00
1:53 AM,68.0,63.0,84,30.05,10.0,Calm,Calm,-,N/A,,Clear,0,2013-10-03 06:53:00
2:53 AM,68.0,63.0,84,30.04,10.0,Calm,Calm,-,N/A,,Clear,0,2013-10-03 07:53:00
3:53 AM,66.9,63.0,87,30.04,10.0,Calm,Calm,-,N/A,,Clear,0,2013-10-03 08:53:00
4:53 AM,66.9,63.0,87,30.03,10.0,NE,4.6,-,N/A,,Clear,40,2013-10-03 09:53:00
5:53 AM,64.9,63.0,93,30.04,8.0,Calm,Calm,-,N/A,,Clear,0,2013-10-03 10:53:00
6:53 AM,64.9,63.0,93,30.06,6.0,Calm,Calm,-,N/A,,Clear,0,2013-10-03 11:53:00
7:53 AM,69.1,64.0,84,30.07,9.0,East,3.5,-,N/A,,Clear,80,2013-10-03 12:53:00
8:53 AM,73.0,66.0,79,30.09,10.0,ESE,4.6,-,N/A,,Clear,120,2013-10-03 13:53:00
9:53 AM,79.0,64.0,60,30.09,10.0,Variable,4.6,-,N/A,,Clear,0,2013-10-03 14:53:00
10:53 AM,-9999,-9999,N/A,30.11,-9999.0,North,-9999.0,-,N/A,,Unknown,0,2013-10-03 15:53:00
11:53 AM,84.0,59.0,43,30.08,10.0,Variable,4.6,-,0.17,,Clear,0,2013-10-03 16:53:00
12:53 PM,84.9,61.0,44,30.06,10.0,Calm,Calm,-,N/A,,Scattered Clouds,0,2013-10-03 17:53:00
1:53 PM,87.1,62.1,43,30.04,10.0,Variable,5.8,-,N/A,,Mostly Cloudy,0,2013-10-03 18:53:00
2:53 PM,86.0,62.1,44,30.02,10.0,Calm,Calm,-,N/A,,Partly Cloudy,0,2013-10-03 19:53:00
3:53 PM,86.0,63.0,46,30.01,10.0,Calm,Calm,-,N/A,,Clear,0,2013-10-03 20:53:00
4:53 PM,82.9,64.9,54,30.00,10.0,Calm,Calm,-,N/A,,Clear,0,2013-10-03 21:53:00
5:53 PM,81.0,70.0,69,30.02,10.0,Calm,Calm,-,N/A,,Clear,0,2013-10-03 22:53:00
6:53 PM,73.9,69.1,85,30.03,10.0,Calm,Calm,-,N/A,,Clear,0,2013-10-03 23:53:00
7:53 PM,73.0,69.1,87,30.04,10.0,Calm,Calm,-,N/A,,Clear,0,2013-10-04 00:53:00
8:53 PM,71.1,68.0,90,30.06,10.0,Calm,Calm,-,N/A,,Clear,0,2013-10-04 01:53:00
9:53 PM,71.1,68.0,90,30.06,10.0,Calm,Calm,-,N/A,,Clear,0,2013-10-04 02:53:00
11:53 PM,69.1,66.9,93,30.06,7.0,Calm,Calm,-,N/A,,Clear,0,2013-10-04 04:53:00